Simultaneous Nadir Overpasses (SNOs) Predictions

Prediction of SNOs between GOES-16 and NOAA-20 Satellite Orbit:

Table of predicted SNOs for the next 14.0 days since TLE Epoch: 10/9/2021
Index Date Time (GOES-16) GOES-16 Lat,Lon NOAA-20 Lat,Lon Distance(km) Time Diff (sec)
1 10/09/2021 06:17:23 -0.07, -75.20 -0.40, -73.63 178.72 80
2 10/10/2021 18:41:59 0.06, -75.20 -0.76, -78.94 425.18 80
3 10/11/2021 18:20:33 0.06, -75.21 0.23, -74.40 91.47 80
4 10/14/2021 06:23:35 -0.07, -75.22 -0.06, -75.13 9.06 80
5 10/16/2021 18:29:26 0.06, -75.24 -0.10, -75.91 76.51 80
6 10/17/2021 18:08:02 0.07, -75.25 0.95, -71.38 441.37 80
7 10/19/2021 06:32:28 -0.06, -75.27 0.27, -76.64 156.05 80
8 10/20/2021 06:11:03 -0.07, -75.29 -0.79, -72.11 362.22 80
9 10/21/2021 18:35:39 0.05, -75.32 -0.41, -77.41 238.71 80
10 10/22/2021 18:14:13 0.06, -75.34 0.58, -72.87 279.91 80
